TimeMST,TemperatureF,Dew PointF,Humidity,Sea Level PressureIn,VisibilityMPH,Wind Direction,Wind SpeedMPH,Gust SpeedMPH,PrecipitationIn,Events,Conditions,WindDirDegrees,DateUTC
12:50 AM,69.8,51.8,53,29.95,10.0,Calm,Calm,-,N/A,,Clear,0,2012-10-31 07:50:00
1:30 AM,69,47,33,29.92,5,NE,2.2,,,,,50,2012-10-31 08:30:00
1:46 AM,69.8,51.8,53,29.94,10.0,NE,4.6,-,N/A,,Clear,40,2012-10-31 08:46:00
3:46 AM,62.6,48.2,59,29.93,10.0,Calm,Calm,-,N/A,,Clear,0,2012-10-31 10:46:00
4:30 AM,65,44,36,29.92,5,SW,2.2,,,,,220,2012-10-31 11:30:00
4:48 AM,64.4,46.4,52,29.93,10.0,Calm,Calm,-,N/A,,Clear,0,2012-10-31 11:48:00
5:41 AM,60.8,46.4,59,29.93,10.0,Calm,Calm,-,N/A,,Clear,0,2012-10-31 12:41:00
6:50 AM,60.8,44.6,55,29.95,10.0,Calm,Calm,-,N/A,,Clear,0,2012-10-31 13:50:00
7:35 AM,63,46,44,29.95,7,NE,2.2,,,,,40,2012-10-31 14:35:00
7:46 AM,-9999,-9999,N/A,29.94,10.0,Calm,Calm,-,N/A,,Unknown,0,2012-10-31 14:46:00
8:50 AM,77.0,44.6,32,29.99,10.0,Calm,Calm,-,N/A,,Clear,0,2012-10-31 15:50:00
9:50 AM,82.4,44.6,26,29.99,10.0,Calm,Calm,-,N/A,,Clear,0,2012-10-31 16:50:00
10:41 AM,86.0,42.8,22,29.95,10.0,Calm,Calm,-,N/A,,Clear,0,2012-10-31 17:41:00
10:45 AM,82,46,18,29.96,7,SSW,2.2,,,,,210,2012-10-31 17:45:00
11:42 AM,89.6,41.0,18,29.96,10.0,South,6.9,-,N/A,,Clear,190,2012-10-31 18:42:00
12:40 PM,93.2,39.2,15,29.94,10.0,SW,4.6,-,N/A,,Clear,220,2012-10-31 19:40:00
1:43 PM,95.0,35.6,12,29.86,10.0,SSW,6.9,-,N/A,,Clear,200,2012-10-31 20:43:00
1:45 PM,93,45,11,29.87,7,SW,2.2,,,,Clear,230,2012-10-31 20:45:00
2:42 PM,95.0,35.6,12,29.90,12.0,WSW,9.2,-,N/A,,Mostly Cloudy,240,2012-10-31 21:42:00
3:45 PM,95.0,35.6,12,29.89,12.0,West,6.9,-,N/A,,Mostly Cloudy,260,2012-10-31 22:45:00
4:35 PM,93,45,11,29.86,14,SSW,2.2,,,,Clear,200,2012-10-31 23:35:00
4:42 PM,93.2,35.6,13,29.88,12.0,WSW,6.9,-,N/A,,Mostly Cloudy,250,2012-10-31 23:42:00
5:44 PM,87.8,35.6,16,29.90,12.0,SW,5.8,-,N/A,,Mostly Cloudy,220,2012-11-01 00:44:00
6:43 PM,80.6,35.6,20,29.91,10.0,SW,5.8,-,N/A,,Scattered Clouds,220,2012-11-01 01:43:00
7:41 PM,78.8,37.4,23,29.91,10.0,South,4.6,-,N/A,,Scattered Clouds,180,2012-11-01 02:41:00
8:44 PM,75.2,37.4,25,29.94,10.0,Calm,Calm,-,N/A,,Scattered Clouds,0,2012-11-01 03:44:00
9:42 PM,73.4,39.2,29,29.94,10.0,Calm,Calm,-,N/A,,Scattered Clouds,0,2012-11-01 04:42:00
10:40 PM,69.8,41.0,35,29.90,10.0,Calm,Calm,-,N/A,,Partly Cloudy,0,2012-11-01 05:40:00
11:44 PM,69.8,42.8,38,29.95,10.0,Calm,Calm,-,N/A,,Clear,0,2012-11-01 06:44:00